Regional Weather Roundup
Issued by NWS Green Bay, WI

Home | Current Version | Previous Version | Graphics & Text | Print | Product List | Glossary Off
Versions: 1 2 3 4 5 6 7 8 9 10 11 12 13 14 15 16 17 18 19 20 21 22 23 24 25 26 27 28 29 30 31 32 33 34 35 36 37 38 39 40 41 42 43 44 45 46 47 48 49 50

000
ASUS43 KGRB 201110
RWRGRB

NORTH-CENTRAL AND NORTHEAST WISCONSIN REGIONAL WEATHER ROUNDUP
NATIONAL WEATHER SERVICE GREEN BAY WI
500 AM CST SAT DEC 20 2014

WIZ005-009-010>012-018-019-201200-
NORTH CENTRAL WISCONSIN

CITY           SKY/WX    TMP DP  RH WIND       PRES   REMARKS
IRONWOOD       CLOUDY    25  21  86 S8        30.15S
MANITOWISH WTR CLOUDY    22  22 100 S3        30.16S
ARBOR VITAE    CLOUDY    23  22  93 S5        30.17S FOG
EAGLE RIVER    CLOUDY    21  20  98 CALM      30.17S FOG
LAND O LAKES   CLOUDY    21  20  95 CALM      30.18S
RHINELANDER    CLOUDY    21  20  96 S3        30.18S FOG
PHILLIPS       CLOUDY    23  22  95 S6        30.17S
ANTIGO         CLOUDY    21  20  96 S3        30.20S
TOMAHAWK       CLOUDY    23  21  94 CALM      30.19F FOG
MERRILL        CLOUDY    24  23  96 CALM      30.20F FOG
$$

WIZ013-073-201200-
NORTHEAST WISCONSIN

CITY           SKY/WX    TMP DP  RH WIND       PRES   REMARKS
IRON MOUNTAIN  CLOUDY    15  11  83 CALM      30.21S
MARINETTE      CLOUDY    16  10  79 CALM      30.27R
OCONTO         MOCLDY    15  15  97 CALM      30.28S
$$

WIZ017-030-035>037-045-201200-
CENTRAL WISCONSIN

CITY           SKY/WX    TMP DP  RH WIND       PRES   REMARKS
MEDFORD        CLOUDY    23  22  95 SE5       30.18F
WAUSAU         CLOUDY    24  21  88 S6        30.21S
MOSINEE        NOT AVBL
MARSHFIELD     CLOUDY    25  22  88 S7        30.21S FOG
WISC RAPIDS    CLOUDY    24  21  88 CALM      30.25S FOG
STEVENS POINT  CLOUDY    23  20  89 CALM      30.24S
WAUPACA        CLOUDY    27  22  84 CALM      30.26S
SHAWANO        CLOUDY    21  19  89 CALM      30.27S
CLINTONVILLE   CLOUDY    23  21  93 CALM      30.26S
$$

WIZ038-039-048-051-201200-
FOX VALLEY

CITY           SKY/WX    TMP DP  RH WIND       PRES   REMARKS
NWS GREEN BAY  MOCLDY    21  19  92 CALM      30.28R
APPLETON       NOT AVBL
OSHKOSH        CLOUDY    23  19  85 CALM      30.26S
FOND DU LAC    CLOUDY    22  18  85 CALM      30.26S
$$

WIZ022-050-052-201200-
EAST CENTRAL WISCONSIN

CITY           SKY/WX    TMP DP  RH WIND       PRES   REMARKS
STURGEON BAY   CLOUDY    25  19  80 CALM      30.28S
MANITOWOC      CLOUDY    27  23  85 CALM      30.28R
SHEBOYGAN      CLOUDY    27  20  75 NW6       30.26S
$$

LMZ563-521-522-541>543-201200-
LAKESHORE

STATION/POSITION TIME  TEMP    WIND        PRES    VSBY  WAVE
                       AIR SEA DIR/SP/G                  HT/PER
                 (UTC) (F)     (DEG/KT/KT) (MB)    (MI)  (FT/S)
SHEBOYGAN LKSHOR 1100   28 34  310/  5/  6 1026.0F
KEWAUNEE LKSHORE 1100   26     300/  6/  8 1024.0S
NORTHPORT PIER   1100   23     240/  2/  3 1025.1S
SISTER BAY LKSHO 1000             CALM       N/A
CHAMBERS ISLAND  1100   18        CALM     1025.1S
MENOMINEE LKSHOR 1100   21     210/  2/  2 1025.6S
$$



USA.gov is the U.S. government's official web portal to all federal, state and local government web resources and services.